Location: Niedergestelen
(46.3129°N, 7.7822°E)
Time: 20:00:41
(UTC+00:00)

CZ-4 R/B - Pass Details

Date: 01 December 2020
Orbit: 532 x 598 km, 97.7° (Epoch: 27 January)

Event Time Altitude Azimuth Distance (km) Brightness Sun altitude
Rises 19:10:17 0° 209° (SSW) 2,716 5.1 -34.8°
Enters shadow 19:10:41 - 211° (SSW) 2,577 5.0 -34.9°
Exits shadow 19:16:40 14° 289° (WNW) 1,620 4.4 -35.9°
Drops below altitude 10° 19:17:59 10° 307° (NW) 1,876 4.6 -36.2°
Sets 19:20:57 0° 330° (NNW) 2,796 5.3 -36.7°
